Wind_Speed
46 47 49 50 52 53 54 55 56 57 58 59 60 61 62 63 64 66 67 67 68 69 70 71 72 73 74 75 76 78 79 80 81 83 84 86 87 89 91 92 94 95 97 98 99 100 102 103 105 106 108 110
46 48 49 51 52 54 55 56 57 58 58 59 60 61 62 63 64 65 66 67 68 69 70 72 73 74 75 76 77 78 79 80 81 83 84 86 88 90 91 93 94 96 97 98 99 100 102 104 105 107 108 110
48 50 51 52 54 55 56 58 59 60 60 61 61 62 62 63 64 65 67 68 69 70 71 72 73 75 76 77 77 78 79 80 81 83 85 87 89 91 92 94 95 97 98 100 101 102 103 105 106 107 109 110
51 52 53 54 56 57 58 59 60 61 63 63 64 64 64 65 66 67 67 69 70 71 72 73 74 75 76 77 78 79 80 81 82 84 86 88 90 92 93 95 97 98 100 102 103 104 106 107 108 109 110 110
53 55 55 56 57 58 59 60 61 62 63 64 66 67 68 68 69 69 69 70 71 72 72 73 74 75 76 78 79 81 82 83 85 86 87 89 91 93 94 96 98 100 102 104 105 106 108 109 110 110 110 110
56 57 58 59 59 59 59 60 61 62 63 65 66 68 69 70 71 72 72 72 73 73 73 74 75 76 77 79 80 82 84 86 87 88 89 90 92 94 96 98 100 102 104 105 107 108 109 110 110 110 110 108
58 59 60 61 61 61 61 61 62 63 64 65 66 68 69 71 72 73 74 75 75 75 74 75 76 77 79 80 82 84 86 87 89 89 90 92 94 96 98 99 101 103 105 106 108 109 109 109 109 109 108 106
59 60 61 63 63 64 63 63 63 64 65 66 67 68 70 72 73 74 76 77 78 77 76 77 78 79 81 82 84 86 87 89 90 91 92 94 95 96 98 100 102 104 106 107 109 109 110 110 111 110 109 107
61 62 64 65 66 66 66 65 65 66 66 67 68 69 71 73 75 76 78 79 79 79 78 79 80 82 83 85 86 87 88 89 90 92 93 95 96 98 100 102 104 106 107 109 110 110 111 112 113 113 111 108
63 64 66 67 68 68 68 67 67 66 67 68 69 71 73 75 76 78 80 81 80 80 80 81 82 83 84 85 86 87 88 89 91 93 95 97 99 100 102 104 106 107 109 110 111 112 113 114 114 114 112 109
65 67 68 69 69 69 68 67 67 67 68 69 71 73 75 77 79 80 81 80 80 80 80 81 82 82 83 84 86 87 89 91 93 95 97 99 100 102 104 106 107 109 110 111 112 112 113 115 115 114 112 109
67 69 70 70 69 68 68 68 68 69 70 72 74 75 77 79 80 80 80 79 79 79 80 81 82 83 84 86 88 90 92 94 96 98 99 100 102 103 105 106 107 108 109 110 111 113 114 114 114 113 110 107
69 70 70 69 68 68 69 70 70 71 72 74 76 77 79 80 80 80 79 79 79 80 81 82 84 86 88 90 92 95 96 98 99 100 101 102 103 103 104 105 106 107 108 109 110 111 112 113 112 110 108 105
69 69 68 68 68 68 70 71 72 73 74 75 77 78 79 79 79 79 79 79 80 82 84 86 88 90 92 95 97 98 99 100 101 102 103 103 103 103 103 103 104 105 106 107 109 109 110 109 109 108 106 103
66 66 66 66 67 69 70 71 73 74 76 77 78 79 79 79 79 79 80 82 84 86 88 91 93 95 96 98 99 99 100 101 102 103 103 103 103 102 102 102 103 104 105 106 107 108 107 107 107 106 104 102
63 64 65 66 67 68 70 72 74 76 78 79 79 79 79 80 81 82 84 86 89 91 94 95 97 97 98 98 99 99 100 101 102 103 103 103 102 101 101 101 102 103 104 104 105 106 106 106 106 104 103 101
62 64 65 66 68 70 72 74 76 78 78 79 79 80 81 82 84 86 89 91 93 95 96 97 97 98 98 98 98 99 100 101 102 103 103 102 101 100 100 100 101 102 103 103 104 104 105 105 104 103 102 101
63 65 67 68 70 72 74 75 76 77 78 79 80 82 84 86 88 90 92 93 94 95 96 96 97 97 98 98 98 99 99 100 101 101 101 100 99 98 98 99 100 101 102 102 103 103 104 104 103 103 102 101
64 66 68 69 71 72 73 75 76 77 79 81 82 84 86 88 89 91 92 93 93 94 95 96 96 97 98 98 98 98 99 99 99 99 98 97 97 97 98 99 100 100 100 100 101 102 103 104 104 103 102 100
64 66 67 69 70 72 73 74 75 77 78 80 81 83 85 86 88 89 90 92 92 94 95 95 96 97 97 98 98 97 97 97 97 96 95 95 95 96 97 98 98 98 97 98 99 101 103 104 105 104 102 100
64 65 66 68 69 70 71 73 74 75 77 78 79 81 83 85 86 88 90 91 92 93 94 95 96 96 96 97 96 96 95 95 94 94 93 94 94 95 95 95 95 95 96 97 99 101 102 104 105 105 103 101
64 65 66 67 69 70 72 74 75 76 77 79 80 81 83 85 87 88 89 91 92 93 94 95 95 95 95 95 94 94 93 92 92 91 91 92 92 92 92 92 93 94 96 98 99 101 101 102 103 104 103 102
65 67 68 70 72 73 75 77 78 79 80 81 83 84 85 86 87 88 90 91 92 93 94 94 94 94 93 92 92 91 91 90 90 89 89 89 89 90 91 92 94 95 97 98 100 100 100 101 102 103 103 103
68 70 72 74 76 77 78 80 81 82 83 84 85 86 87 88 88 89 90 91 92 93 93 93 93 92 91 90 90 90 90 89 88 88 87 88 89 91 92 94 95 97 98 99 100 100 101 101 101 102 103 103
71 73 75 77 78 80 81 82 84 85 86 86 87 88 89 89 90 90 91 91 92 92 92 92 91 91 90 89 89 89 89 88 88 87 88 89 91 92 93 95 97 98 99 99 100 100 101 102 102 102 102 103
75 77 78 79 81 82 83 84 85 87 88 88 89 89 90 90 90 91 91 91 91 91 91 91 90 90 89 88 88 88 87 87 87 88 89 90 92 93 94 95 97 98 99 100 100 101 102 102 102 102 102 102
78 80 81 82 83 84 85 85 86 88 88 89 90 90 91 91 91 91 91 91 91 91 90 90 90 89 89 88 87 87 87 87 87 88 89 90 92 93 95 97 98 98 99 100 101 102 103 103 103 102 102 102
81 82 83 84 85 86 87 87 88 88 89 89 90 91 91 91 91 91 91 90 90 90 90 90 90 90 89 88 87 86 86 86 86 87 89 90 92 94 96 98 99 100 100 101 103 104 104 104 103 102 102 102
83 84 85 86 87 88 88 88 89 89 90 90 91 92 92 92 91 90 90 90 89 90 90 91 91 91 89 88 87 86 85 85 86 87 88 91 93 96 97 99 100 101 102 103 105 106 105 104 103 102 102 103
85 85 86 87 88 89 89 89 90 90 91 91 92 93 93 93 92 91 89 90 90 90 91 91 92 91 90 88 87 86 85 85 86 87 89 92 95 97 98 99 101 102 104 105 107 107 106 105 103 102 103 104
86 86 87 88 89 90 90 90 90 91 91 92 93 93 93 93 92 91 90 90 91 92 93 93 93 92 90 88 86 85 85 85 86 88 90 93 96 98 99 100 102 103 105 106 107 107 106 105 104 104 105 106
Wind_Direction
295 294 294 293 292 292 291 291 291 290 290 290 290 290 290 290 290 290 290 290 289 289 288 287 287 287 287 287 286 286 285 285 284 284 283 283 283 282 282 282 282 282 282 282 282 281 281 281 280 280 279 279
295 295 295 295 295 294 294 294 294 294 294 293 293 292 292 291 291 291 291 291 290 290 289 289 289 288 288 288 288 287 287 286 286 286 285 285 285 285 285 285 285 285 284 284 284 284 283 283 282 281 281 281
294 294 295 295 295 295 295 296 296 295 295 295 294 294 294 294 293 292 292 291 290 289 289 289 289 288 288 289 289 289 289 288 288 288 288 288 287 287 287 287 287 287 287 287 286 286 285 284 284 283 283 282
295 295 294 294 294 293 293 294 294 294 295 295 295 295 295 295 295 294 293 292 290 289 288 288 288 288 288 289 290 290 290 290 290 290 290 289 288 288 288 288 288 288 288 288 288 287 287 286 285 285 285 285
296 295 295 295 293 292 292 292 292 292 292 293 294 294 295 295 295 295 294 293 292 290 288 288 288 288 289 289 290 290 290 291 291 291 290 289 289 288 288 288 288 289 289 289 289 288 288 288 288 288 288 287
296 296 297 297 296 295 293 293 291 291 291 291 292 293 293 294 294 294 294 295 294 292 290 289 289 289 289 289 290 290 290 290 291 291 290 289 289 288 289 289 289 289 290 290 290 290 290 290 291 291 290 290
297 298 298 298 298 297 295 294 292 290 290 289 290 291 292 293 294 295 295 296 296 294 291 290 290 289 289 289 289 289 289 290 290 290 290 290 290 290 290 291 291 291 291 291 292 292 292 293 293 293 293 293
299 299 299 299 298 298 296 295 292 291 290 290 291 292 293 294 295 296 296 297 297 295 292 291 290 290 289 289 289 289 290 290 291 291 292 292 292 293 293 292 292 292 292 293 293 294 294 295 295 295 296 296
300 300 299 299 298 298 297 296 294 293 293 293 293 294 295 296 296 296 297 297 297 295 293 291 291 291 291 291 291 292 292 293 294 295 295 295 295 295 294 294 293 293 293 294 294 295 296 296 296 297 297 298
300 300 299 299 299 299 298 298 297 296 296 296 296 296 297 297 297 297 297 297 296 295 293 293 293 293 293 293 294 295 295 296 296 296 296 296 295 295 294 294 294 294 295 295 295 296 296 296 296 297 298 298
299 299 299 299 299 299 300 300 299 298 298 297 297 297 297 296 297 297 297 296 295 295 294 294 294 294 295 296 296 297 297 297 297 297 296 296 296 295 295 295 295 295 295 295 295 295 295 295 296 297 298 298
298 298 298 299 300 300 301 301 300 299 298 297 297 296 296 297 297 297 297 297 296 296 296 296 296 297 297 298 298 298 298 298 298 298 298 297 297 296 296 296 295 295 295 295 294 294 295 295 296 297 298 299
297 297 298 299 301 301 301 300 299 297 297 296 296 297 298 298 299 298 298 298 297 297 297 297 298 298 299 299 299 299 300 300 300 300 299 299 298 298 297 296 295 295 294 294 294 294 294 295 296 297 298 299
298 298 300 301 301 300 299 298 297 297 297 297 298 299 300 300 299 298 297 297 297 297 297 298 298 299 299 300 300 301 301 301 301 301 300 300 299 298 297 296 295 294 294 294 294 295 296 296 297 298 299 300
300 301 301 300 298 297 296 296 297 297 298 299 300 301 300 299 298 297 296 296 297 298 299 299 300 300 301 301 302 302 302 302 302 301 300 300 299 298 297 296 296 295 295 295 296 297 297 298 299 299 300 301
302 301 299 297 296 296 297 298 299 300 301 301 301 301 300 299 298 298 298 299 300 300 301 301 301 302 302 302 303 303 303 303 302 301 301 300 299 298 298 297 297 296 296 297 297 298 298 299 299 300 301 302
300 299 298 298 298 299 300 301 302 302 303 302 302 301 301 300 300 300 301 301 301 301 301 302 302 303 303 304 304 304 304 303 302 302 301 301 300 299 298 297 297 297 297 298 298 298 298 299 299 300 302 303
302 302 302 302 303 304 304 305 305 305 304 303 303 303 302 302 302 302 301 301 301 302 302 303 304 304 304 305 305 304 304 303 302 302 301 300 299 298 298 297 297 298 298 299 299 299 299 300 301 302 303 303
307 307 307 307 308 308 308 307 307 306 305 304 304 304 303 302 302 302 302 302 303 303 304 304 305 305 305 305 305 305 304 303 302 301 300 299 298 297 297 297 297 298 298 299 299 299 300 301 302 303 304 304
310 310 310 310 310 309 308 307 307 306 306 306 305 305 304 304 303 303 303 304 304 305 305 305 305 305 305 305 305 305 304 304 303 301 300 298 297 297 297 297 298 298 299 299 300 300 301 303 303 304 304 305
312 312 312 311 310 309 309 308 308 308 308 308 307 307 306 306 306 305 305 305 305 305 305 305 306 306 306 306 306 306 305 304 303 301 299 298 297 297 297 298 299 299 300 300 301 302 303 304 305 305 306 306
313 312 312 312 311 310 310 310 309 309 309 309 309 308 308 308 307 307 306 306 306 306 306 306 307 307 307 307 307 307 306 304 302 301 299 298 298 298 298 299 300 301 301 302 303 304 305 306 306 306 306 307
312 312 312 312 312 311 311 311 310 311 310 310 309 309 309 309 309 308 307 307 307 306 307 307 308 308 309 309 309 308 306 305 303 301 300 299 299 299 300 300 301 302 303 303 304 305 306 307 307 307 307 307
312 312 312 311 311 311 311 311 311 311 311 310 310 310 310 310 310 309 308 307 307 307 308 308 309 310 310 310 309 308 307 305 304 302 300 300 299 300 301 302 303 304 305 306 306 307 307 308 308 309 309 309
312 312 311 311 310 310 310 310 311 310 310 310 309 309 310 310 310 309 308 307 307 308 308 309 310 311 311 311 310 309 307 305 304 302 301 300 300 301 302 303 304 306 306 308 308 309 309 309 310 310 310 310
312 311 311 310 310 309 309 309 310 309 309 309 308 308 309 310 309 308 307 307 307 308 309 311 312 312 313 312 311 309 307 305 303 302 301 301 302 302 303 304 306 307 308 309 309 310 310 310 311 311 311 311
311 311 310 310 309 309 309 309 309 309 308 308 308 308 308 309 308 307 307 307 308 309 311 312 313 314 313 312 311 309 307 305 303 302 301 302 302 303 305 306 307 308 309 309 310 310 310 311 311 311 311 311
310 309 309 309 308 308 308 309 308 308 308 307 307 307 307 308 307 306 306 307 309 310 312 313 314 314 313 312 311 309 307 305 303 303 302 303 303 305 306 307 308 309 309 310 310 310 311 311 311 311 311 311
309 309 308 308 308 308 308 308 308 307 307 306 306 306 307 307 307 306 306 308 310 311 313 313 314 314 313 312 310 309 307 305 304 303 303 304 305 306 307 308 308 309 310 310 310 310 311 311 311 311 310 311
309 309 308 308 308 308 308 308 307 306 306 306 306 306 307 307 307 306 307 309 311 312 313 313 313 313 313 312 310 308 307 305 304 304 304 305 305 306 307 308 309 309 309 310 310 311 311 310 310 310 310 310
310 309 308 308 308 308 308 307 306 305 305 305 305 306 306 307 307 307 308 310 311 312 312 313 313 313 312 311 310 308 306 305 304 304 304 305 305 306 307 308 308 308 309 309 310 311 311 310 310 310 310 310
Height
10780 10778 10776 10773 10771 10768 10766 10763 10761 10758 10755 10753 10750 10747 10745 10742 10739 10737 10734 10731 10729 10726 10723 10720 10718 10714 10711 10708 10705 10702 10699 10696 10692 10689 10686 10682 10678 10675 10671 10667 10664 10660 10657 10654 10651 10648 10644 10640 10636 10632 10628 10624
10775 10773 10771 10768 10766 10763 10760 10758 10755 10752 10750 10747 10744 10741 10738 10736 10733 10730 10727 10724 10721 10719 10716 10713 10710 10706 10703 10700 10697 10693 10690 10687 10683 10680 10676 10673 10669 10665 10661 10658 10654 10650 10647 10643 10640 10636 10632 10628 10624 10620 10616 10613
10771 10768 10765 10763 10760 10757 10755 10752 10749 10747 10744 10741 10738 10735 10732 10729 10726 10723 10720 10717 10714 10711 10708 10705 10702 10698 10695 10691 10688 10684 10681 10678 10674 10671 10667 10663 10659 10655 10651 10648 10644 10640 10636 10632 10629 10625 10621 10616 10612 10608 10604 10601
10766 10763 10760 10757 10754 10752 10749 10746 10743 10741 10738 10735 10732 10729 10726 10723 10720 10716 10713 10710 10706 10703 10700 10696 10693 10690 10686 10683 10679 10676 10672 10669 10665 10662 10657 10653 10649 10646 10642 10638 10634 10630 10626 10621 10617 10613 10608 10604 10600 10596 10592 10589
10761 10758 10755 10752 10749 10746 10743 10740 10737 10734 10731 10728 10725 10722 10719 10716 10712 10709 10705 10702 10698 10695 10691 10688 10684 10681 10678 10674 10671 10667 10664 10660 10656 10653 10649 10644 10640 10636 10632 10628 10624 10620 10616 10611 10606 10602 10597 10592 10588 10584 10580 10577
10755 10752 10749 10745 10742 10739 10736 10733 10730 10727 10724 10721 10718 10715 10711 10708 10704 10701 10697 10694 10690 10687 10683 10679 10676 10672 10669 10665 10662 10658 10655 10651 10648 10644 10639 10635 10631 10627 10622 10618 10614 10609 10605 10600 10595 10590 10586 10581 10577 10572 10568 10565
10749 10746 10743 10739 10736 10733 10730 10727 10723 10720 10717 10714 10711 10707 10704 10700 10697 10693 10689 10686 10682 10678 10675 10671 10668 10664 10661 10657 10653 10649 10646 10642 10638 10634 10630 10626 10621 10617 10613 10608 10603 10599 10594 10589 10584 10579 10574 10570 10565 10560 10556 10552
10743 10740 10736 10733 10730 10727 10723 10720 10716 10713 10710 10707 10703 10700 10696 10693 10689 10685 10682 10678 10674 10671 10667 10663 10660 10656 10652 10648 10645 10641 10637 10633 10629 10625 10620 10616 10612 10608 10603 10598 10593 10588 10583 10578 10573 10568 10563 10558 10553 10548 10543 10540
10737 10733 10730 10727 10723 10720 10716 10713 10709 10706 10703 10700 10696 10693 10689 10685 10681 10678 10674 10670 10667 10663 10659 10655 10651 10648 10644 10640 10636 10632 10628 10624 10620 10616 10611 10607 10602 10598 10593 10588 10583 10578 10572 10567 10562 10557 10551 10546 10540 10535 10531 10528
10731 10727 10724 10720 10717 10713 10709 10706 10703 10699 10696 10693 10689 10686 10682 10678 10674 10670 10666 10663 10659 10655 10651 10647 10643 10639 10636 10632 10628 10624 10621 10617 10612 10608 10603 10598 10593 10588 10583 10577 10572 10566 10561 10555 10550 10545 10540 10534 10529 10523 10519 10516
10724 10721 10717 10714 10710 10706 10703 10700 10696 10693 10689 10686 10682 10678 10674 10670 10666 10662 10658 10655 10651 10647 10643 10639 10636 10632 10628 10624 10620 10616 10612 10608 10604 10599 10594 10589 10583 10578 10572 10566 10560 10554 10549 10544 10539 10534 10529 10523 10518 10513 10509 10505
10718 10715 10711 10707 10704 10700 10697 10693 10690 10686 10683 10679 10675 10671 10667 10663 10659 10655 10651 10647 10643 10639 10635 10632 10628 10624 10620 10616 10611 10607 10603 10598 10594 10589 10584 10578 10572 10566 10560 10554 10548 10543 10537 10532 10528 10523 10518 10512 10507 10503 10498 10494
10712 10708 10704 10701 10697 10694 10691 10687 10683 10680 10676 10672 10668 10664 10660 10655 10651 10647 10643 10638 10635 10631 10627 10623 10620 10616 10611 10607 10602 10598 10593 10588 10583 10577 10571 10566 10560 10554 10548 10543 10537 10532 10527 10522 10517 10512 10507 10502 10497 10493 10488 10484
10705 10701 10698 10695 10691 10688 10685 10681 10677 10673 10669 10665 10661 10657 10652 10648 10643 10639 10635 10631 10627 10623 10619 10615 10611 10607 10602 10597 10592 10587 10582 10576 10571 10565 10560 10554 10548 10543 10537 10532 10527 10521 10516 10511 10505 10501 10496 10491 10486 10481 10477 10473
10698 10695 10692 10689 10686 10682 10678 10674 10670 10666 10662 10658 10654 10649 10645 10641 10636 10632 10627 10623 10619 10614 10610 10605 10601 10597 10592 10587 10581 10576 10571 10565 10560 10554 10549 10543 10537 10531 10526 10520 10515 10509 10504 10498 10493 10488 10484 10479 10474 10469 10465 10462
10693 10690 10687 10683 10680 10676 10672 10668 10663 10659 10655 10651 10647 10642 10638 10634 10629 10624 10620 10615 10610 10605 10600 10595 10591 10586 10581 10576 10571 10566 10560 10555 10549 10543 10537 10531 10525 10519 10514 10508 10503 10498 10492 10487 10482 10477 10472 10468 10463 10458 10454 10450
10687 10684 10681 10677 10673 10669 10665 10661 10657 10652 10648 10644 10640 10635 10631 10626 10621 10616 10611 10606 10601 10595 10590 10585 10580 10576 10571 10566 10561 10555 10549 10544 10538 10532 10525 10519 10513 10508 10502 10497 10491 10487 10482 10478 10473 10467 10461 10456 10452 10448 10444 10439
10682 10678 10674 10671 10667 10663 10659 10655 10651 10646 10642 10637 10633 10628 10623 10618 10613 10608 10603 10597 10592 10586 10581 10576 10570 10565 10560 10555 10551 10545 10539 10533 10527 10521 10515 10509 10503 10498 10492 10487 10482 10477 10472 10467 10462 10456 10450 10445 10441 10436 10432 10428
10676 10673 10669 10665 10661 10658 10654 10650 10645 10640 10635 10630 10625 10620 10615 10610 10605 10600 10594 10589 10583 10577 10572 10567 10561 10556 10551 10546 10541 10536 10530 10524 10517 10511 10506 10500 10494 10488 10483 10478 10473 10468 10463 10457 10451 10446 10440 10434 10429 10425 10421 10417
10671 10667 10663 10659 10655 10651 10647 10643 10638 10633 10628 10623 10618 10613 10607 10602 10597 10591 10586 10580 10575 10569 10564 10558 10553 10547 10542 10537 10531 10525 10519 10513 10507 10500 10495 10490 10484 10479 10473 10469 10464 10459 10454 10448 10442 10436 10429 10422 10417 10413 10409 10405
10665 10661 10657 10653 10649 10645 10640 10636 10631 10626 10621 10616 10611 10605 10600 10594 10589 10583 10577 10572 10566 10561 10555 10550 10544 10539 10533 10527 10521 10515 10508 10502 10496 10490 10484 10479 10473 10468 10463 10458 10453 10449 10443 10438 10432 10426 10420 10412 10406 10401 10396 10393
10659 10655 10651 10647 10643 10638 10633 10629 10624 10619 10614 10608 10603 10598 10592 10586 10580 10575 10569 10563 10558 10552 10547 10541 10535 10529 10523 10517 10510 10504 10497 10491 10486 10480 10475 10468 10462 10457 10453 10448 10443 10438 10433 10427 10422 10417 10411 10404 10396 10390 10385 10380
10653 10649 10645 10640 10636 10631 10626 10621 10617 10611 10606 10600 10595 10589 10584 10578 10572 10566 10560 10554 10549 10543 10537 10531 10525 10519 10512 10506 10499 10493 10486 10481 10475 10469 10464 10458 10452 10446 10441 10437 10432 10428 10423 10417 10411 10406 10402 10396 10387 10380 10374 10368
10647 10643 10638 10633 10628 10623 10618 10613 10608 10603 10598 10591 10586 10580 10575 10569 10563 10557 10551 10545 10539 10533 10527 10521 10515 10509 10502 10496 10489 10483 10476 10470 10465 10459 10453 10447 10442 10436 10430 10424 10419 10414 10410 10406 10400 10394 10389 10385 10378 10370 10362 10356
10640 10636 10631 10626 10621 10615 10610 10605 10599 10593 10588 10583 10577 10571 10566 10560 10554 10548 10542 10536 10530 10524 10518 10512 10505 10499 10492 10486 10480 10473 10467 10461 10455 10449 10443 10437 10431 10426 10421 10414 10408 10402 10397 10393 10388 10382 10376 10371 10366 10360 10352 10345
10633 10628 10623 10618 10613 10607 10602 10597 10591 10585 10578 10573 10567 10562 10557 10551 10545 10539 10533 10527 10521 10514 10508 10502 10495 10489 10482 10476 10470 10464 10458 10452 10446 10440 10434 10428 10421 10415 10410 10405 10400 10393 10387 10381 10376 10372 10367 10360 10355 10350 10343 10336
10625 10620 10615 10610 10604 10599 10593 10588 10583 10577 10570 10564 10558 10552 10547 10542 10536 10529 10523 10518 10512 10505 10498 10492 10485 10479 10473 10467 10460 10454 10448 10442 10437 10431 10425 10419 10413 10406 10399 10393 10388 10383 10377 10371 10365 10360 10355 10350 10345 10340 10334 10326
10616 10611 10606 10601 10595 10590 10584 10579 10573 10567 10561 10556 10549 10543 10538 10533 10527 10521 10514 10508 10502 10496 10489 10482 10475 10469 10464 10457 10451 10445 10439 10433 10427 10421 10415 10409 10403 10397 10391 10383 10376 10371 10366 10360 10354 10348 10343 10338 10333 10328 10323 10318
10608 10602 10597 10591 10585 10580 10575 10569 10564 10558 10551 10546 10540 10534 10528 10523 10518 10513 10506 10499 10492 10486 10479 10472 10465 10459 10454 10448 10442 10436 10430 10424 10418 10412 10406 10399 10393 10387 10381 10375 10367 10359 10354 10348 10341 10336 10332 10327 10322 10316 10310 10307
10599 10593 10587 10582 10576 10570 10565 10559 10554 10548 10542 10536 10530 10523 10517 10511 10505 10501 10495 10489 10482 10476 10470 10463 10457 10450 10444 10438 10432 10426 10420 10414 10408 10403 10396 10389 10383 10376 10370 10365 10358 10350 10344 10338 10331 10323 10317 10313 10309 10305 10298 10293
10590 10584 10578 10572 10567 10561 10555 10549 10544 10538 10532 10526 10521 10515 10509 10502 10495 10489 10485 10479 10473 10466 10460 10454 10447 10441 10435 10428 10422 10417 10411 10404 10398 10393 10386 10379 10372 10366 10360 10354 10348 10340 10333 10328 10322 10314 10307 10300 10294 10290 10285 10281